Voltar ao catálogo

STARLINK-3516

AtivoComunicaçõesVLEO
NORAD 51739·PAYLOAD·🇺🇸 United States

Lançado Feb 21, 2022 de Cape Canaveral Space Force Station

Loading…

Próximas Passagens (próximas 24 horas)

TLE

AtualizadoSource: CelesTrak SupGP

Época: Sep 14, 2026, 22:00 UTC

1 51739C 22016AB  26257.91715278 -.00032029  00000+0 -91671-3 0  2579
2 51739  53.1582 175.7004 0001244  90.4059  16.9194 15.35402583    10

Acompanhe STARLINK-3516 em tempo real com AllMySat

Download on the App Store